Time,TemperatureF,DewpointF,PressureIn,WindDirection,WindDirectionDegrees,WindSpeedMPH,WindSpeedGustMPH,Humidity,HourlyPrecipIn,Conditions,Clouds,dailyrainin,SoftwareType,DateUTC
2013-03-15 00:03:00,34.0,-99.9,-100.00,WSW,247,2.0,3.0,-999,0.00,,,0.00,,2013-03-15 05:03:00,
2013-03-15 00:12:00,34.0,-99.9,-100.00,WSW,247,2.0,3.0,-999,0.00,,,0.00,,2013-03-15 05:12:00,
2013-03-15 00:23:00,34.0,-99.9,-100.00,WSW,247,2.0,3.0,-999,0.00,,,0.00,,2013-03-15 05:23:00,
2013-03-15 00:32:00,32.0,-99.9,-100.00,WNW,285,0.0,1.0,-999,0.00,,,0.00,,2013-03-15 05:32:00,
2013-03-15 00:42:00,32.0,-99.9,-100.00,WNW,285,0.0,1.0,-999,0.00,,,0.00,,2013-03-15 05:42:00,
2013-03-15 00:53:00,32.0,-99.9,-100.00,WNW,285,0.0,1.0,-999,0.00,,,0.00,,2013-03-15 05:53:00,
2013-03-15 01:00:00,32.0,-99.9,-100.00,ENE,66,1.0,2.0,-999,0.00,,,0.00,,2013-03-15 06:00:00,
2013-03-15 01:02:00,32.0,-99.9,-100.00,ESE,118,0.0,0.0,-999,0.00,,,0.00,,2013-03-15 06:02:00,
2013-03-15 01:13:00,32.0,-99.9,-100.00,ESE,118,0.0,0.0,-999,0.00,,,0.00,,2013-03-15 06:13:00,
2013-03-15 01:22:00,32.0,-99.9,-100.00,ESE,118,0.0,0.0,-999,0.00,,,0.00,,2013-03-15 06:22:00,
2013-03-15 01:33:00,32.0,-99.9,-100.00,ENE,66,1.0,2.0,-999,0.00,,,0.00,,2013-03-15 06:33:00,
2013-03-15 01:43:00,32.0,-99.9,-100.00,ENE,66,1.0,2.0,-999,0.00,,,0.00,,2013-03-15 06:43:00,
2013-03-15 01:53:00,32.0,-99.9,-100.00,ENE,66,1.0,2.0,-999,0.00,,,0.00,,2013-03-15 06:53:00,
2013-03-15 03:03:00,31.0,-99.9,-100.00,North,349,1.0,1.0,-999,-99.99,,,0.00,,2013-03-15 08:03:00,
2013-03-15 03:12:00,31.0,-99.9,-100.00,North,349,1.0,1.0,-999,-99.99,,,0.00,,2013-03-15 08:12:00,
2013-03-15 03:23:00,31.0,-99.9,-100.00,North,349,1.0,1.0,-999,-99.99,,,0.00,,2013-03-15 08:23:00,
2013-03-15 03:33:00,31.0,-99.9,-100.00,WNW,286,0.0,0.0,-999,0.00,,,0.00,,2013-03-15 08:33:00,
2013-03-15 03:42:00,31.0,-99.9,-100.00,WNW,286,0.0,0.0,-999,0.00,,,0.00,,2013-03-15 08:42:00,
2013-03-15 03:53:00,31.0,-99.9,-100.00,WNW,286,0.0,0.0,-999,0.00,,,0.00,,2013-03-15 08:53:00,
2013-03-15 04:02:00,31.0,-99.9,-100.00,East,93,0.0,0.0,-999,0.00,,,0.00,,2013-03-15 09:02:00,
2013-03-15 04:12:00,31.0,-99.9,-100.00,East,93,0.0,0.0,-999,0.00,,,0.00,,2013-03-15 09:12:00,
2013-03-15 04:22:00,31.0,-99.9,-100.00,East,93,0.0,0.0,-999,0.00,,,0.00,,2013-03-15 09:22:00,
2013-03-15 04:34:00,31.0,-99.9,-100.00,NW,317,0.0,0.0,-999,0.00,,,0.00,,2013-03-15 09:34:00,
2013-03-15 04:43:00,31.0,-99.9,-100.00,NW,317,0.0,0.0,-999,0.00,,,0.00,,2013-03-15 09:43:00,
2013-03-15 04:53:00,31.0,-99.9,-100.00,NW,317,0.0,0.0,-999,0.00,,,0.00,,2013-03-15 09:53:00,
2013-03-15 05:03:00,31.0,-99.9,-100.00,ESE,121,0.0,1.0,-999,0.00,,,0.00,,2013-03-15 10:03:00,
2013-03-15 05:13:00,31.0,-99.9,-100.00,ESE,121,0.0,1.0,-999,0.00,,,0.00,,2013-03-15 10:13:00,
2013-03-15 05:23:00,31.0,-99.9,-100.00,ESE,121,0.0,1.0,-999,0.00,,,0.00,,2013-03-15 10:23:00,
2013-03-15 05:33:00,32.0,-99.9,-100.00,SSW,211,1.0,2.0,-999,0.00,,,0.00,,2013-03-15 10:33:00,
2013-03-15 05:43:00,32.0,-99.9,-100.00,SSW,211,1.0,2.0,-999,0.00,,,0.00,,2013-03-15 10:43:00,
2013-03-15 05:52:00,32.0,-99.9,-100.00,SSW,211,1.0,2.0,-999,0.00,,,0.00,,2013-03-15 10:52:00,
2013-03-15 06:03:00,31.0,-99.9,-100.00,WSW,257,0.0,1.0,-999,0.00,,,0.00,,2013-03-15 11:03:00,
2013-03-15 06:12:00,31.0,-99.9,-100.00,WSW,257,0.0,1.0,-999,0.00,,,0.00,,2013-03-15 11:12:00,
2013-03-15 06:23:00,31.0,-99.9,-100.00,WSW,257,0.0,1.0,-999,0.00,,,0.00,,2013-03-15 11:23:00,
2013-03-15 06:33:00,31.0,-99.9,-100.00,South,191,0.0,1.0,-999,0.00,,,0.00,,2013-03-15 11:33:00,
2013-03-15 06:43:00,31.0,-99.9,-100.00,South,191,0.0,1.0,-999,0.00,,,0.00,,2013-03-15 11:43:00,
2013-03-15 06:53:00,31.0,-99.9,-100.00,South,191,0.0,1.0,-999,0.00,,,0.00,,2013-03-15 11:53:00,
2013-03-15 07:02:00,31.0,-99.9,-100.00,SSW,206,1.0,1.0,-999,0.00,,,0.00,,2013-03-15 12:02:00,
2013-03-15 07:13:00,31.0,-99.9,-100.00,SSW,206,1.0,1.0,-999,0.00,,,0.00,,2013-03-15 12:13:00,
2013-03-15 07:23:00,31.0,-99.9,-100.00,SSW,206,1.0,1.0,-999,0.00,,,0.00,,2013-03-15 12:23:00,
2013-03-15 07:32:00,30.0,-99.9,-100.00,NNE,12,0.0,1.0,-999,0.00,,,0.00,,2013-03-15 12:32:00,
2013-03-15 07:42:00,30.0,-99.9,-100.00,NNE,12,0.0,1.0,-999,0.00,,,0.00,,2013-03-15 12:42:00,
2013-03-15 07:52:00,30.0,-99.9,-100.00,NNE,12,0.0,1.0,-999,0.00,,,0.00,,2013-03-15 12:52:00,
2013-03-15 08:02:00,31.0,-99.9,-100.00,ESE,106,0.0,1.0,-999,0.00,,,0.00,,2013-03-15 13:02:00,
2013-03-15 08:12:00,31.0,-99.9,-100.00,ESE,106,0.0,1.0,-999,0.00,,,0.00,,2013-03-15 13:12:00,
2013-03-15 08:22:00,31.0,-99.9,-100.00,ESE,106,0.0,1.0,-999,0.00,,,0.00,,2013-03-15 13:22:00,
2013-03-15 08:32:00,32.0,-99.9,-100.00,SW,230,1.0,2.0,-999,0.00,,,0.00,,2013-03-15 13:32:00,
2013-03-15 08:42:00,32.0,-99.9,-100.00,SW,230,1.0,2.0,-999,0.00,,,0.00,,2013-03-15 13:42:00,
2013-03-15 08:53:00,32.0,-99.9,-100.00,SW,230,1.0,2.0,-999,0.00,,,0.00,,2013-03-15 13:53:00,
2013-03-15 09:02:00,34.0,-99.9,-100.00,South,190,1.0,2.0,-999,0.00,,,0.00,,2013-03-15 14:02:00,
2013-03-15 09:12:00,34.0,-99.9,-100.00,South,190,1.0,2.0,-999,0.00,,,0.00,,2013-03-15 14:12:00,
2013-03-15 09:22:00,34.0,-99.9,-100.00,South,190,1.0,2.0,-999,0.00,,,0.00,,2013-03-15 14:22:00,
2013-03-15 09:33:00,34.0,-99.9,-100.00,SSW,212,2.0,3.0,-999,0.00,,,0.00,,2013-03-15 14:33:00,
2013-03-15 09:42:00,34.0,-99.9,-100.00,SSW,212,2.0,3.0,-999,0.00,,,0.00,,2013-03-15 14:42:00,
2013-03-15 09:53:00,34.0,-99.9,-100.00,SSW,212,2.0,3.0,-999,0.00,,,0.00,,2013-03-15 14:53:00,
2013-03-15 10:00:00,35.0,-99.9,-100.00,ENE,58,0.0,1.0,-999,0.00,,,0.00,,2013-03-15 15:00:00,
2013-03-15 10:02:00,34.0,-99.9,-100.00,SSW,196,2.0,3.0,-999,0.00,,,0.00,,2013-03-15 15:02:00,
2013-03-15 10:13:00,34.0,-99.9,-100.00,SSW,196,2.0,3.0,-999,0.00,,,0.00,,2013-03-15 15:13:00,
2013-03-15 10:23:00,34.0,-99.9,-100.00,SSW,196,2.0,3.0,-999,0.00,,,0.00,,2013-03-15 15:23:00,
2013-03-15 10:33:00,35.0,-99.9,-100.00,ENE,58,0.0,1.0,-999,0.00,,,0.00,,2013-03-15 15:33:00,
2013-03-15 10:43:00,35.0,-99.9,-100.00,ENE,58,0.0,1.0,-999,0.00,,,0.00,,2013-03-15 15:43:00,
2013-03-15 10:53:00,35.0,-99.9,-100.00,ENE,58,0.0,1.0,-999,0.00,,,0.00,,2013-03-15 15:53:00,
2013-03-15 11:32:00,39.0,-99.9,-100.00,SSW,213,1.0,1.0,-999,0.00,,,0.00,,2013-03-15 16:32:00,
2013-03-15 11:42:00,39.0,-99.9,-100.00,SSW,213,1.0,1.0,-999,0.00,,,0.00,,2013-03-15 16:42:00,
2013-03-15 11:53:00,39.0,-99.9,-100.00,SSW,213,1.0,1.0,-999,0.00,,,0.00,,2013-03-15 16:53:00,
2013-03-15 12:02:00,39.0,-99.9,-100.00,SW,231,4.0,5.0,-999,0.00,,,0.00,,2013-03-15 17:02:00,
2013-03-15 12:12:00,39.0,-99.9,-100.00,SW,231,4.0,5.0,-999,0.00,,,0.00,,2013-03-15 17:12:00,
2013-03-15 12:23:00,39.0,-99.9,-100.00,SW,231,4.0,5.0,-999,0.00,,,0.00,,2013-03-15 17:23:00,
2013-03-15 12:33:00,40.0,-99.9,-100.00,SSE,149,1.0,2.0,-999,0.00,,,0.00,,2013-03-15 17:33:00,
2013-03-15 12:43:00,40.0,-99.9,-100.00,SSE,149,1.0,2.0,-999,0.00,,,0.00,,2013-03-15 17:43:00,
2013-03-15 12:53:00,40.0,-99.9,-100.00,SSE,149,1.0,2.0,-999,0.00,,,0.00,,2013-03-15 17:53:00,
2013-03-15 13:00:00,40.0,-99.9,-100.00,ENE,64,7.0,8.0,-999,0.00,,,0.00,,2013-03-15 18:00:00,
2013-03-15 13:03:00,40.0,-99.9,-100.00,ENE,59,3.0,4.0,-999,0.00,,,0.00,,2013-03-15 18:03:00,
2013-03-15 13:12:00,40.0,-99.9,-100.00,ENE,59,3.0,4.0,-999,0.00,,,0.00,,2013-03-15 18:12:00,
2013-03-15 13:22:00,40.0,-99.9,-100.00,ENE,59,3.0,4.0,-999,0.00,,,0.00,,2013-03-15 18:22:00,
2013-03-15 13:32:00,40.0,-99.9,-100.00,ENE,64,7.0,8.0,-999,0.00,,,0.00,,2013-03-15 18:32:00,
2013-03-15 13:42:00,40.0,-99.9,-100.00,ENE,64,7.0,8.0,-999,0.00,,,0.00,,2013-03-15 18:42:00,
2013-03-15 13:53:00,40.0,-99.9,-100.00,ENE,64,7.0,8.0,-999,0.00,,,0.00,,2013-03-15 18:53:00,
2013-03-15 14:30:00,39.0,-99.9,-100.00,ENE,74,15.0,17.0,-999,0.00,,,0.00,,2013-03-15 19:30:00,
2013-03-15 14:32:00,41.0,-99.9,-100.00,NE,55,5.0,6.0,-999,0.00,,,0.00,,2013-03-15 19:32:00,
2013-03-15 14:42:00,41.0,-99.9,-100.00,NE,55,5.0,6.0,-999,0.00,,,0.00,,2013-03-15 19:42:00,
2013-03-15 14:53:00,41.0,-99.9,-100.00,NE,55,5.0,6.0,-999,0.00,,,0.00,,2013-03-15 19:53:00,
2013-03-15 15:03:00,39.0,-99.9,-100.00,ENE,74,15.0,17.0,-999,0.00,,,0.00,,2013-03-15 20:03:00,
2013-03-15 15:12:00,39.0,-99.9,-100.00,ENE,74,15.0,17.0,-999,0.00,,,0.00,,2013-03-15 20:12:00,
2013-03-15 15:22:00,39.0,-99.9,-100.00,ENE,74,15.0,17.0,-999,0.00,,,0.00,,2013-03-15 20:22:00,
2013-03-15 15:42:00,41.0,-99.9,-100.00,ENE,68,6.0,9.0,-999,0.00,,,0.00,,2013-03-15 20:42:00,
2013-03-15 15:52:00,41.0,-99.9,-100.00,ENE,68,6.0,9.0,-999,0.00,,,0.00,,2013-03-15 20:52:00,
2013-03-15 16:02:00,41.0,-99.9,-100.00,East,97,8.0,9.0,-999,0.00,,,0.00,,2013-03-15 21:02:00,
2013-03-15 16:12:00,41.0,-99.9,-100.00,East,97,8.0,9.0,-999,0.00,,,0.00,,2013-03-15 21:12:00,
2013-03-15 16:22:00,41.0,-99.9,-100.00,East,97,8.0,9.0,-999,0.00,,,0.00,,2013-03-15 21:22:00,
2013-03-15 16:33:00,42.0,-99.9,-100.00,East,90,7.0,9.0,-999,0.00,,,0.00,,2013-03-15 21:33:00,
2013-03-15 16:43:00,42.0,-99.9,-100.00,East,90,7.0,9.0,-999,0.00,,,0.00,,2013-03-15 21:43:00,
2013-03-15 16:53:00,42.0,-99.9,-100.00,East,90,7.0,9.0,-999,0.00,,,0.00,,2013-03-15 21:53:00,
2013-03-15 17:04:00,40.0,-99.9,-100.00,ENE,70,9.0,9.0,-999,0.00,,,0.00,,2013-03-15 22:04:00,
2013-03-15 17:14:00,40.0,-99.9,-100.00,ENE,70,9.0,9.0,-999,0.00,,,0.00,,2013-03-15 22:14:00,
2013-03-15 17:23:00,40.0,-99.9,-100.00,ENE,70,9.0,9.0,-999,0.00,,,0.00,,2013-03-15 22:23:00,
2013-03-15 17:33:00,41.0,-99.9,-100.00,East,79,9.0,11.0,-999,0.00,,,0.00,,2013-03-15 22:33:00,
2013-03-15 17:43:00,41.0,-99.9,-100.00,East,79,9.0,11.0,-999,0.00,,,0.00,,2013-03-15 22:43:00,
2013-03-15 17:53:00,41.0,-99.9,-100.00,East,79,9.0,11.0,-999,0.00,,,0.00,,2013-03-15 22:53:00,
2013-03-15 18:03:00,40.0,-99.9,-100.00,ENE,66,8.0,10.0,-999,0.00,,,0.00,,2013-03-15 23:03:00,
2013-03-15 18:12:00,40.0,-99.9,-100.00,ENE,66,8.0,10.0,-999,0.00,,,0.00,,2013-03-15 23:12:00,
2013-03-15 18:22:00,40.0,-99.9,-100.00,ENE,66,8.0,10.0,-999,0.00,,,0.00,,2013-03-15 23:22:00,
2013-03-15 18:30:00,41.0,-99.9,-100.00,ENE,59,5.0,6.0,-999,0.00,,,0.00,,2013-03-15 23:30:00,
2013-03-15 18:32:00,41.0,-99.9,-100.00,ENE,61,5.0,6.0,-999,0.00,,,0.00,,2013-03-15 23:32:00,
2013-03-15 18:43:00,41.0,-99.9,-100.00,ENE,61,5.0,6.0,-999,0.00,,,0.00,,2013-03-15 23:43:00,
2013-03-15 18:53:00,41.0,-99.9,-100.00,ENE,61,5.0,6.0,-999,0.00,,,0.00,,2013-03-15 23:53:00,
2013-03-15 19:03:00,41.0,-99.9,-100.00,ENE,59,5.0,6.0,-999,0.00,,,0.00,,2013-03-16 00:03:00,
2013-03-15 19:12:00,41.0,-99.9,-100.00,ENE,59,5.0,6.0,-999,0.00,,,0.00,,2013-03-16 00:12:00,
2013-03-15 19:22:00,41.0,-99.9,-100.00,ENE,59,5.0,6.0,-999,0.00,,,0.00,,2013-03-16 00:22:00,
2013-03-15 20:03:00,40.0,-99.9,-100.00,NNE,27,5.0,7.0,-999,0.00,,,0.00,,2013-03-16 01:03:00,
2013-03-15 20:12:00,40.0,-99.9,-100.00,NNE,27,5.0,7.0,-999,0.00,,,0.00,,2013-03-16 01:12:00,
2013-03-15 20:22:00,40.0,-99.9,-100.00,NNE,27,5.0,7.0,-999,0.00,,,0.00,,2013-03-16 01:22:00,
2013-03-15 20:30:00,38.0,-99.9,-100.00,NE,48,9.0,11.0,-999,-99.99,,,-99.99,,2013-03-16 01:30:00,
2013-03-15 20:32:00,39.0,-99.9,-100.00,NNE,28,7.0,9.0,-999,-99.99,,,-99.99,,2013-03-16 01:32:00,
2013-03-15 20:42:00,39.0,-99.9,-100.00,NNE,28,7.0,9.0,-999,-99.99,,,-99.99,,2013-03-16 01:42:00,
2013-03-15 20:53:00,39.0,-99.9,-100.00,NNE,28,7.0,9.0,-999,-99.99,,,-99.99,,2013-03-16 01:53:00,
2013-03-15 21:02:00,38.0,-99.9,-100.00,NE,48,9.0,11.0,-999,-99.99,,,-99.99,,2013-03-16 02:02:00,
2013-03-15 21:13:00,38.0,-99.9,-100.00,NE,48,9.0,11.0,-999,-99.99,,,-99.99,,2013-03-16 02:13:00,
2013-03-15 21:23:00,38.0,-99.9,-100.00,NE,48,9.0,11.0,-999,-99.99,,,-99.99,,2013-03-16 02:23:00,
2013-03-15 22:03:00,37.0,-99.9,-100.00,NE,47,7.0,11.0,-999,0.00,,,-99.99,,2013-03-16 03:03:00,
2013-03-15 22:12:00,37.0,-99.9,-100.00,NE,47,7.0,11.0,-999,0.00,,,-99.99,,2013-03-16 03:12:00,
2013-03-15 22:22:00,37.0,-99.9,-100.00,NE,47,7.0,11.0,-999,0.00,,,-99.99,,2013-03-16 03:22:00,
2013-03-15 22:30:00,36.0,-99.9,-100.00,ENE,63,10.0,12.0,-999,0.00,,,-99.99,,2013-03-16 03:30:00,
2013-03-15 22:33:00,36.0,-99.9,-100.00,ENE,65,12.0,15.0,-999,0.00,,,-99.99,,2013-03-16 03:33:00,
2013-03-15 22:43:00,36.0,-99.9,-100.00,ENE,65,12.0,15.0,-999,0.00,,,-99.99,,2013-03-16 03:43:00,
2013-03-15 22:53:00,36.0,-99.9,-100.00,ENE,65,12.0,15.0,-999,0.00,,,-99.99,,2013-03-16 03:53:00,
2013-03-15 23:03:00,36.0,-99.9,-100.00,ENE,63,10.0,12.0,-999,0.00,,,-99.99,,2013-03-16 04:03:00,
2013-03-15 23:13:00,36.0,-99.9,-100.00,ENE,63,10.0,12.0,-999,0.00,,,-99.99,,2013-03-16 04:13:00,
2013-03-15 23:23:00,36.0,-99.9,-100.00,ENE,63,10.0,12.0,-999,0.00,,,-99.99,,2013-03-16 04:23:00,